Чегем 1-й

Россия / Кабардино-Балкарская Республика     43°36′47″N   43°43′38″E
темп.,
°C
ветер,
м/с
пор.,
м/с
влажн.,
%
обл.,
%
осадки,
мм/ч
давл.,
гПа
погр.,
м
13 мая, чт
чт1300:00+10юз22820 0.0 101414
03:00+10ююз22790 0.0 101311
06:00+12зюз11730 0.0 101424
09:00+17св21630 0.0 1014472
12:00+21св32552 0.0 1014911
15:00+23всв32537 0.0 10131047
18:00+21всв23681 0.0 1013100
21:00+16юз228281 0.0 101511
14 мая, пт
пт1400:00+15юз118036 0.0 101312
03:00+14юз11725 0.0 101311
06:00+15зюз116711 0.0 101415
09:00+21всв11570 0.0 1013327
12:00+26в32490 0.0 1012784
15:00+27всв33470 0.0 10111044
18:00+25св23670 0.0 101178
21:00+19зюз227911 0.0 101214
15 мая, сб
сб1500:00+18юз227265 0.0 101114
03:00+16юз11635 0.0 101111
06:00+18юз21595 0.0 101216
09:00+24ссв22465 0.0 1012372
12:00+27ссв33485 0.0 10121228
15:00+28ссв2246100 0.0 10111800
18:00+23з227097 0.3 101139
21:00+19юз4779100 2.4 1012103
16 мая, вс
вс1600:00+17зюз2275100 0.1 101114
03:00+16юз2273100 0.1 101013
06:00+18юз017397 0.0 101027
09:00+22всв22655 0.0 1009441
12:00+26всв33555 0.0 10071149
15:00+27всв33513 0.0 10061532
18:00+25св24655 0.0 1005140
21:00+18з227997 1.2 100613
17 мая, пн
пн1700:00+16зсз117812 0.0 100511
03:00+15зсз22757 0.0 100412
06:00+16з007268 0.0 100527
09:00+21св216252 0.0 1004336
12:00+25ссв32490 0.0 1004845
15:00+27с32451 0.0 10041240
18:00+22сз7117597 0.1 1007476
21:00+18зюз1180100 1.8 100921